Regional Weather Roundup
Issued by NWS

Home | Current Version | Previous Version | Text Only | Print | Product List | Glossary Off
Versions: 1 2 3 4 5 6 7 8 9 10 11 12 13 14 15 16 17 18 19 20 21 22 23 24 25 26 27 28 29 30 31 32 33 34 35 36 37 38 39 40 41 42 43 44 45 46 47 48 49 50

000
ASUS45 KSLC 301810
RWRUT

UTAH REGIONAL WEATHER ROUNDUP
NATIONAL WEATHER SERVICE SALT LAKE CITY UT
1200 PM MDT TUE JUN 30 2015

UTZ001>011-023>025-301900-

NORTHERN UTAH

CITY           SKY/WX    TMP DP  RH WIND       PRES   REMARKS
BRIGHAM CITY   SUNNY     91  44  19 CALM      30.08F
HILL AFB       SUNNY     91  50  25 SW5       30.13R
LOGAN          SUNNY     87  53  31 VRB3      30.10S
OGDEN          SUNNY     91  51  25 SW8       30.09S
PROVO AIRPORT  PTSUNNY   91  52  25 CALM      30.11S
SALT LAKE CITY MOSUNNY   94  50  22 SW8       30.05F HX  91
VERNAL         MOSUNNY   86  41  20 CALM      30.14F
WENDOVER       MOSUNNY   93  45  18 SE9       30.08S
HEBER CITY     SUNNY     86  46  25 CALM      30.19F
WEST JORDAN    SUNNY     91  50  24 E7        30.11S

$$

UTZ012>022-026-027-301900-

SOUTHERN/CENTRAL UTAH

CITY           SKY/WX    TMP DP  RH WIND       PRES   REMARKS
BLANDING       SUNNY     84  48  28 W7        30.29F
BRYCE CANYON   SUNNY     86  43  22 VRB3      30.37S
CEDAR CITY     SUNNY     91  43  18 N9        30.18F
DELTA          MOSUNNY   91  43  18 SW9       30.12F
HANKSVILLE     SUNNY     97  39  13 CALM      30.09S HX  92
MILFORD        SUNNY     95  44  17 W6        30.13F HX  91
MOAB/CYNLANDS  SUNNY     94  46  19 VRB3      30.06F HX  90
PRICE          SUNNY     94  41  16 VRB5      30.18S HX  90
ST GEORGE      CLEAR     99  52  20 W8        29.98F HX  96
KANAB          SUNNY     91  52  25 S5        30.17F

$$

REGIONAL REPORTS     COLORADO/ARIZONA

CITY           SKY/WX    TMP DP  RH WIND       PRES   REMARKS
CRAIG, CO      MOSUNNY   82  52  35 N3        30.23F
GRAND JUNCTION MOSUNNY   90  46  21 VRB3      30.11F
RIFLE          SUNNY     89  45  21 N6        30.16F
MONTROSE       MOSUNNY   90  46  21 VRB3      30.19F
CORTEZ         SUNNY     87  47  24 MISG      30.21F
PAGE, AZ       SUNNY     94  47  20 VRB5      30.07S HX  90
GRAND CANYON   SUNNY     86  48  26 VRB6      30.27F
KINGMAN        MOSUNNY   96  51  21 SW12      30.05F HX  93
FLAGSTAFF      MOSUNNY   77  54  44 SW12      30.32F

$$

REGIONAL REPORTS    NEVADA/IDAHO/WYOMING

CITY           SKY/WX    TMP DP  RH WIND       PRES   REMARKS
LAS VEGAS, NV  PTSUNNY  103  48  15 S6        29.88S HX  99
ELY            SUNNY     89  39  17 CALM      30.24F
ELKO           SUNNY     91  47  21 S6        30.15F
POCATELLO, ID  SUNNY     85  54  34 NW6       30.13F
BURLEY         SUNNY     86  56  35 VRB3      30.10S
EVANSTON, WY   SUNNY     82  47  29 W6        30.31S
ROCK SPRINGS   SUNNY     84  42  22 W13       30.26S
KEMMERER       MOSUNNY   82  41  23 W13       30.32F

$$


USA.gov is the U.S. government's official web portal to all federal, state and local government web resources and services.